This demonstration page uses our WeatherBlox Daily Observations layout. Learn more.

39.29038, -76.61219

Hourly Observations for July 17, 2018

Temp ( °F °C ) Dew Point ( °F °C ) Humidity (%) Winds ( mph kmh ) Pressure ( in mb ) Visibility ( mi km ) Precip ( " mm )
12:54 am 00:54 undefined 80 26.7 73 22.8 79 79 undefined N/A 29.92 1013 N/A 0 0
1:54 am 01:54 undefined 79 26.1 73 22.8 82 82 undefined N/A 29.91 1013 N/A 0 0
2:54 am 02:54 undefined 79 26.1 73 22.8 82 82 undefined N/A 29.9 1013 N/A 0 0
3:54 am 03:54 undefined 78 25.6 73 22.8 85 85 undefined N/A 29.89 1012 N/A 0 0
4:54 am 04:54 undefined 78 25.6 73 22.8 85 85 undefined N/A 29.88 1012 N/A 0 0
5:54 am 05:54 undefined 77 25 73 22.8 88 88 undefined N/A 29.88 1012 N/A 0 0
6:54 am 06:54 undefined 79 26.1 73 22.8 82 82 undefined N/A 29.88 1012 N/A 0 0
7:54 am 07:54 undefined 81 27.2 74 23.3 79 79 undefined N/A 29.9 1012 N/A 0 0
8:54 am 08:54 undefined 84 28.9 74 23.3 72 72 undefined N/A 29.89 1012 N/A 0 0
9:54 am 09:54 undefined 88 31.1 75 23.9 66 66 undefined N/A 29.89 1012 N/A 0 0
10:54 am 10:54 undefined 89 31.7 75 23.9 63 63 undefined N/A 29.87 1012 N/A 0 0
11:54 am 11:54 undefined 92 33.3 75 23.9 58 58 undefined N/A 29.86 1011 N/A 0 0
12:54 pm 12:54 undefined 91 32.8 75 23.9 59 59 undefined N/A 29.81 1009 N/A 0 0
1:54 pm 13:54 undefined 89 31.7 76 24.4 65 65 undefined N/A 29.78 1008 N/A 0 0
2:54 pm 14:54 undefined 81 27.2 74 23.3 79 79 undefined N/A 29.77 1008 N/A 0 0
3:54 pm 15:54 undefined 79 26.1 76 24.4 90 90 undefined N/A 29.75 1007 N/A 0.33 8.382
4:54 pm 16:54 undefined 81 27.2 77 25 88 88 undefined N/A 29.79 1009 N/A 0 0
5:54 pm 17:54 undefined 80 26.7 74 23.3 82 82 undefined N/A 29.81 1010 N/A 0 0
6:54 pm 18:54 undefined 82 27.8 74 23.3 77 77 undefined N/A 29.82 1010 N/A 0 0
7:54 pm 19:54 undefined 81 27.2 74 23.3 79 79 undefined N/A 29.81 1010 N/A 0 0
8:54 pm 20:54 undefined 80 26.7 74 23.3 82 82 undefined N/A 29.82 1010 N/A 0 0
9:54 pm 21:54 undefined 81 27.2 74 23.3 79 79 undefined N/A 29.86 1011 N/A 0 0
10:54 pm 22:54 undefined 78 25.6 73 22.8 85 85 undefined N/A 29.81 1009 N/A 0.02 0.508
11:54 pm 23:54 undefined 78 25.6 73 22.8 85 85 undefined N/A 29.84 1011 N/A 0 0

Powered by AerisWeather